Location: Ciochowice
(50.4289°N, 18.5217°E)
Time: 12:19:47
(UTC+01:00)

ISS - Visible Passes

Search period start: 24 January 2019 00:00
Search period end: 03 February 2019 00:00
Orbit: 404 x 410 km, 51.6° (Epoch: 24 January)

Date Brightness Start Highest point End Pass type
(mag) Time Alt. Az. Time Alt. Az. Time Alt. Az.
24 Jan -2.0 17:49:02 10° S 17:51:20 18° SE 17:52:04 17° SE visible
24 Jan -0.8 19:24:09 10° WSW 19:24:47 15° WSW 19:24:47 15° WSW visible
25 Jan -3.1 18:32:55 10° SW 18:35:41 44° S 18:35:41 44° S visible
26 Jan -2.7 17:41:51 10° SSW 17:44:50 32° SSE 17:46:30 20° E visible
26 Jan -1.3 19:17:54 10° W 19:19:14 22° W 19:19:14 22° W visible
27 Jan -4.0 18:26:30 10° WSW 18:29:48 78° SSE 18:30:00 74° ESE visible
28 Jan -3.5 17:35:11 10° SW 17:38:26 57° SSE 17:40:43 18° E visible
28 Jan -1.8 19:11:40 10° W 19:13:26 29° W 19:13:26 29° W visible
29 Jan -3.8 18:20:12 10° W 18:23:31 78° N 18:24:07 55° ENE visible
30 Jan -3.8 17:28:45 10° WSW 17:32:04 87° SSE 17:34:47 14° ENE visible
30 Jan -2.2 19:05:24 10° W 19:07:30 35° WNW 19:07:30 35° WNW visible
31 Jan -3.8 18:13:55 10° W 18:17:13 69° N 18:18:09 42° ENE visible
31 Jan -0.4 19:50:31 10° WNW 19:50:52 12° WNW 19:50:52 12° WNW visible
01 Feb -3.7 17:22:25 10° W 17:25:43 73° N 17:28:49 11° ENE visible
01 Feb -2.8 18:59:03 10° WNW 19:01:32 47° WNW 19:01:32 47° WNW visible
02 Feb -3.8 18:07:34 10° WNW 18:10:52 74° N 18:12:12 33° E visible
02 Feb -0.7 19:44:10 10° W 19:44:55 15° W 19:44:55 15° W visible
